Weather in Dubinovka

Russia / Kursk Oblast     51°38′57″N   37°29′44″E
temp.,
°C
wind,
m/s
gust,
m/s
humid.,
%
clouds,
%
prec.,
mm/h
press.,
hPa
HPBL,
m
1 july, fri
fri100:00+15nnw34785 0.0 101649
03:00+13nw3487100 0.0 101667
06:00+14nw38845 0.0 1015188
09:00+20n610625 0.0 1015698
12:00+22n8105426 0.1 10152058
15:00+21nne810480 0.3 10152036
18:00+18nne79580 0.0 10171562
21:00+12n411680 0.0 1019225
2 july, sat
sat200:00+9nne38750 0.0 1021166
03:00+7n410870 0.0 1021225
06:00+9n411810 0.0 1022306
09:00+15n710630 0.0 1021832
12:00+20nne79550 0.0 10211512
15:00+21n79490 0.0 10201771
18:00+20n69582 0.0 10201505
21:00+15nnw410780 0.0 1020190
3 july, sun
sun300:00+13nw49830 0.0 1020141
03:00+12nw410760 0.0 1019159
06:00+13nw4107725 0.0 1019216
09:00+19nnw5960100 0.0 1018434
12:00+23nw795257 0.0 1017881
15:00+25nnw795598 0.0 10161438
18:00+23nnw5971100 0.6 1016713
21:00+19nnw498799 0.6 1016168
4 july, mon
mon400:00+18nw368896 0.0 101684
03:00+17nnw3793100 0.0 1016124
06:00+17nnw36910 0.0 1017171
09:00+22ne34680 0.0 1017543
12:00+25ene33540 0.0 10171322
15:00+27ne344721 0.0 10172187
18:00+26ene34571 0.0 1017591
21:00+20ese347023 0.0 101852
5 july, tue
tue500:00+17sse347911 0.0 101958
03:00+16s34825 0.0 101962
06:00+17ssw3580100 0.0 1020120
09:00+23ssw346360 0.0 1020499
12:00+26ssw445662 0.0 10191352
15:00+26sw3356100 0.6 10181512
18:00+22ssw468091 0.6 1018244
21:00+19s36880 0.6 1018103